This is the latest recevied weather packets stored in our database for station/object DG3NAD-21. If no packets are shown the sender has not sent any weather packets the latest 10 day(s).
| Time | Temp. | Humidity | Pressure | Rain* | Wind** | Luminosity | Snow |
|---|---|---|---|---|---|---|---|
| 1788038822 | 22.78° C | 51% | 1017.2 hPa | - | - | - | - |
| 1788037922 | 22.78° C | 51% | 1017.4 hPa | - | - | - | - |
| 1788037022 | 22.78° C | 50% | 1017.5 hPa | - | - | - | - |
| 1788036121 | 22.78° C | 50% | 1017.4 hPa | - | - | - | - |
| 1788035221 | 22.78° C | 49% | 1017.4 hPa | - | - | - | - |
| 1788034321 | 23.33° C | 49% | 1017.4 hPa | - | - | - | - |
| 1788033421 | 23.33° C | 48% | 1017.4 hPa | - | - | - | - |
| 1788032521 | 23.33° C | 48% | 1017.5 hPa | - | - | - | - |
| 1788031621 | 23.89° C | 47% | 1017.4 hPa | - | - | - | - |
| 1788030721 | 23.89° C | 47% | 1017.4 hPa | - | - | - | - |
| 1788029821 | 23.89° C | 46% | 1017.3 hPa | - | - | - | - |
| 1788028921 | 24.44° C | 46% | 1017.3 hPa | - | - | - | - |
| 1788028021 | 24.44° C | 46% | 1017.2 hPa | - | - | - | - |
| 1788027121 | 24.44° C | 45% | 1017.2 hPa | - | - | - | - |
| 1788026220 | 25° C | 44% | 1017 hPa | - | - | - | - |
| 1788025319 | 25° C | 43% | 1017.1 hPa | - | - | - | - |
| 1788024418 | 25.56° C | 42% | 1017 hPa | - | - | - | - |
| 1788023517 | 25.56° C | 42% | 1017 hPa | - | - | - | - |
| 1788022616 | 25.56° C | 41% | 1017.1 hPa | - | - | - | - |
| 1788021715 | 25.56° C | 41% | 1017.1 hPa | - | - | - | - |
| 1788020814 | 25.56° C | 40% | 1017.1 hPa | - | - | - | - |
| 1788019914 | 25.56° C | 40% | 1017.2 hPa | - | - | - | - |
| 1788019013 | 25.56° C | 40% | 1017.2 hPa | - | - | - | - |
| 1788018112 | 26.11° C | 39% | 1017.3 hPa | - | - | - | - |
| 1788017212 | 25.56° C | 40% | 1017.4 hPa | - | - | - | - |
* Rain since midnight (hover to see other rain measurements)
** Current wind speed in m/s (hover to see current wind gust speed)